{"data":{"norad_id":60950,"epoch":"2026-09-22T18:50:44.380896Z","epoch_age_seconds":94113,"freshness":"FRESH","line1":"1 60950U 24156F   26265.78523589  .00004888  00000+0  20390-3 0  9990","line2":"2 60950  34.9938 304.0445 0001429 171.2591 188.8149 15.23064635114336","mean_motion":15.23064635,"eccentricity":0.0001429,"inclination_deg":34.9938,"raan_deg":304.0445,"arg_perigee_deg":171.2591,"mean_anomaly_deg":188.8149,"bstar":0.0002039,"rev_number":11433,"period_min":94.546217337651,"perigee_km":495.62071524618,"apogee_km":497.58551597122,"semimajor_km":6874.7401156087,"source":"CELESTRAK","updated_at":"2026-09-23T09:00:20.759871Z"}}